Weather in Nakhon Sawan

Thailand     15°42′17″N   100°08′14″E
temp.,
°C
wind,
m/s
gust,
m/s
humid.,
%
clouds,
%
prec.,
mm/h
press.,
hPa
HPBL,
m
4 march, thu
thu401:00+27s5106925 1.5 1013643
04:00+26s287433 0.0 1012424
07:00+26sse377727 0.0 1013373
10:00+31sse565340 0.0 1015830
13:00+34sse443939 0.0 10121614
16:00+37s443230 0.0 10092381
19:00+33sse374032 0.1 1010191
22:00+26wsw22713 3.3 101273
5 march, fri
fri501:00+28ssw38652 4.1 1012363
04:00+26s38690 0.0 1011299
07:00+26sse26751 0.3 1012283
10:00+33ssw45460 0.0 1014956
13:00+37sw44320 0.0 10112237
16:00+37sw343062 0.0 10082491
19:00+29nw6105478 0.3 1009331
22:00+29se465680 1.3 1012256
6 march, sat
sat601:00+27s6116840 2.9 1012443
04:00+27s4107542 0.0 1011463
07:00+26s288162 0.0 1013441
10:00+31ssw33540 0.0 1015857
13:00+37w11310 0.0 10111962
16:00+38wsw22250 0.0 10082779
19:00+35w12304 0.0 100955
22:00+33sse353732 0.0 1012155
7 march, sun
sun701:00+29s475636 0.1 1012379
04:00+27s48630 0.3 1011313
07:00+27sse37660 0.3 1012306
10:00+33ssw34440 0.0 1013815
13:00+37ssw22320 0.0 10102163
16:00+38sse32277 0.0 10073025
19:00+35sse33339 0.0 100997
22:00+31s494972 0.8 1012511
8 march, mon
mon801:00+30ssw475383 1.0 1011550
04:00+29sse3558100 0.1 1010433
07:00+28se466587 0.1 1012311
10:00+33se674837 0.0 10151073
13:00+35se443751 0.0 10111991
16:00+36se333651 0.0 10092198
19:00+28wnw7107063 4.1 1010285
22:00+29se346384 0.2 1013149